Regional Weather Roundup
Issued by NWS Little Rock, AR

Home | Current Version | Previous Version | Graphics & Text | Print | Product List | Glossary On
Versions: 1 2 3 4 5 6 7 8 9 10 11 12 13 14 15 16 17 18 19 20 21 22 23 24 25 26 27 28 29 30 31 32 33 34 35 36 37 38 39 40 41 42 43 44 45 46 47 48 49 50
137
ASUS44 KLZK 140505
RWRLZK

WEATHER ROUNDUP FOR ARKANSAS
NATIONAL WEATHER SERVICE LITTLE ROCK AR
1100 PM CST SAT FEB 13 2016

NOTE: "FAIR" INDICATES FEW OR NO CLOUDS BELOW 12,000 FEET WITH NO
SIGNIFICANT WEATHER AND/OR OBSTRUCTIONS TO VISIBILITY.

ARZ001-003-010-029-140600-
NORTHWEST ARKANSAS

CITY           SKY/WX    TMP DP  RH WIND       PRES   REMARKS
FAYETTEVILLE   MOCLDY    34  13  41 S7        30.17R WCI  28
FORT SMITH     PTCLDY    37   9  31 E10       30.21F
HARRISON       CLOUDY    29   8  41 SE13      30.23R WCI  19
BENTONVILLE    CLOUDY    36   9  32 SE12      30.18F
ROGERS         CLOUDY    35   9  33 SE9       30.18R WCI  28
SILOAM SPGS    MOCLDY    36   9  32 SE7       30.17F
HIGHFILL       CLOUDY    36  12  37 SE8       30.16S
$$

ARZ004-005-016-140600-
NORTH CENTRAL ARKANSAS

CITY           SKY/WX    TMP DP  RH WIND       PRES   REMARKS
BATESVILLE     CLOUDY    25   9  50 E8        30.36F WCI  16
FLIPPIN        CLOUDY    27   7  43 E9        30.28F WCI  17
MTN HOME       CLOUDY    24   7  48 E13G20    30.29F WCI  12
$$

ARZ040-041-140600-
WEST CENTRAL ARKANSAS

CITY           SKY/WX    TMP DP  RH WIND       PRES   REMARKS
MENA           CLOUDY    43  14  31 E10       30.20F
MOUNT IDA      CLOUDY    37  11  34 SE8       30.22F
$$

ARZ009-017-025-026-028-140600-
NORTHEAST ARKANSAS

CITY           SKY/WX    TMP DP  RH WIND       PRES   REMARKS
CORNING        FAIR      27   9  46 E7        30.40F WCI  19
JONESBORO      CLOUDY    25  15  66 NE6       30.38F WCI  18
NEWPORT        PTCLDY    24  13  63 NE7       30.39F WCI  16
WALNUT RIDGE   CLOUDY    25  10  54 E8        30.40S WCI  16
BLYTHEVILLE    CLOUDY    27  14  58 E6        30.40F WCI  20
$$

ARZ022-023-033-042-044-140600-
CENTRAL ARKANSAS

CITY           SKY/WX    TMP DP  RH WIND       PRES   REMARKS
LITTLE ROCK    CLOUDY    32  14  47 E8        30.32F WCI  25
N LITTLE ROCK  MOCLDY    30  17  57 E10       30.32F WCI  21
JACKSONVILLE   CLOUDY    31  13  47 E8        30.31F WCI  23
SEARCY         CLOUDY    28  16  60 NE8       30.37F WCI  20
HOT SPRINGS    CLOUDY    36  12  37 E12       30.28F
RUSSELLVILLE   CLOUDY    32  10  40 E9G17     30.29F WCI  24
CLINTON        CLOUDY    30  10  43 CALM      30.33F
$$

ARZ036-140600-
EAST ARKANSAS

CITY           SKY/WX    TMP DP  RH WIND       PRES   REMARKS
WEST MEMPHIS   CLOUDY    29  12  49 E7        30.36F WCI  22
$$

ARZ050-053-066-070-073-140600-
SOUTHWEST ARKANSAS

CITY           SKY/WX    TMP DP  RH WIND       PRES   REMARKS
ARKADELPHIA    CLOUDY    38  16  41 E8        30.30F
CAMDEN         CLOUDY    39  14  35 E3        30.29F
TEXARKANA      CLOUDY    44  21  40 SE8       30.24F
EL DORADO      CLOUDY    42  16  34 E10       30.29F
DE QUEEN       CLOUDY    43  19  38 E13       30.22F
$$

ARZ056-057-069-140600-
SOUTHEAST ARKANSAS

CITY           SKY/WX    TMP DP  RH WIND       PRES   REMARKS
PINE BLUFF     CLOUDY    33  18  53 NE5       30.33F WCI  29
STUTTGART      CLEAR     30  16  55 NE7       30.35F WCI  23
MONTICELLO     MOCLDY    33  21  61 NE5       30.32F WCI  29

$$






USA.gov is the U.S. government's official web portal to all federal, state and local government web resources and services.